Home > Weather > Karaganda > Past weeks

Flag for Kazakhstan Past Weather in Karaganda, Kazakhstan — Yesterday and Last 2 Weeks

Now
54 °F

Clear.


Feels Like: 53 °F
Forecast: 52 / 72 °F
Wind: 3 mph from West

Location: Karaganda

Current Time: Jun 30, 2016 at 11:38:20 PM

Latest Report: Jun 30, 2016 at 11:00 PM


Visibility: 10 mi

Pressure: 29.68 "Hg (27.77 "Hg at 555m altitude)

Humidity: 82%

Dew Point: 48 °F

Location of KaragandaLocation

Past Weather in Karaganda — Graph

°F

Karaganda Temperature Yesterday

Maximum temperature yesterday: 73 °F (at 3:00 PM)
Minimum temperature yesterday: 50 °F (at 11:30 PM)
Average temperature yesterday: 64 °F

High & Low Weather Summary for the Past Weeks

 TemperatureHumidityPressure
High79 °F (Jun 25, 6:00 PM)94% (Jun 19, 4:30 AM)30.04 "Hg (Jun 19, 4:30 AM)
Low43 °F (Jun 20, 4:00 AM)27% (Jun 16, 3:30 PM)29.56 "Hg (Jun 26, 4:30 PM)
Average62 °F67%29.84 "Hg
* Reported Jun 15 10:00 PM — Jun 30 10:30 PM, Karaganda, Weather by CustomWeather, © 2016

Note: Actual official high and low records may vary slightly from our data, if they occured in-between our weather recording intervals... More about our weather records

Advertising

Karaganda Weather History for the Previous 24 Hours

Scroll right to see more
 ConditionsComfort  
Time TempWeatherWind HumidityBarometerVisibility
10:30 PM
Thu, Jun 30
57 °FClear.6 mph77%29.68 "Hg10 mi
10:00 PM59 °FSunny.3 mph72%29.68 "Hg10 mi
9:30 PM61 °FSunny.3 mph68%29.68 "Hg10 mi
9:00 PM63 °FSunny.6 mph68%29.68 "Hg10 mi
8:30 PM66 °FSunny.8 mph56%29.68 "Hg10 mi
8:00 PM68 °FPassing clouds.13 mph56%29.68 "HgN/A
7:30 PM68 °FSunny.13 mph56%29.68 "Hg10 mi
7:00 PM70 °FSunny.13 mph53%29.68 "Hg10 mi
6:30 PM72 °FPassing clouds.10 mph47%29.65 "HgN/A
6:00 PM72 °FSunny.13 mph41%29.65 "Hg10 mi
5:30 PM72 °FPassing clouds.13 mph41%29.65 "HgN/A
5:00 PM73 °FPassing clouds.10 mph41%29.68 "HgN/A
4:30 PM72 °FSunny.13 mph41%29.68 "Hg10 mi
4:00 PM72 °FPassing clouds.13 mph44%29.68 "HgN/A
3:30 PM72 °FSunny.15 mph44%29.68 "Hg10 mi
3:00 PM72 °FPassing clouds.15 mph41%29.68 "HgN/A
2:30 PM72 °FSunny.15 mph38%29.68 "Hg10 mi
2:00 PM73 °FPassing clouds.20 mph36%29.68 "HgN/A
1:30 PM72 °FPassing clouds.15 mph41%29.68 "HgN/A
1:00 PM70 °FSunny.15 mph46%29.68 "Hg10 mi
12:30 PM72 °FPassing clouds.15 mph41%29.68 "HgN/A
12:00 PM70 °FSunny.13 mph43%29.68 "Hg10 mi
11:30 AM70 °FPassing clouds.13 mph50%29.68 "HgN/A
11:00 AM68 °FSunny.13 mph46%29.68 "Hg10 mi
10:30 AM68 °FScattered clouds.10 mph53%29.68 "HgN/A
10:00 AM68 °FScattered clouds.10 mph53%29.71 "HgN/A
9:30 AM66 °FSunny.10 mph52%29.71 "Hg10 mi
9:00 AM66 °FSunny.10 mph52%29.71 "Hg10 mi
8:30 AM64 °FSunny.8 mph60%29.71 "Hg10 mi
8:00 AM61 °FPassing clouds.3 mph77%29.71 "HgN/A
7:30 AM59 °FSunny.1 mph77%29.71 "Hg10 mi
7:00 AM54 °FSunny.1 mph88%29.71 "Hg10 mi
6:30 AM50 °FSunny.1 mph88%29.71 "Hg10 mi
6:00 AM46 °FClear.1 mph87%29.71 "Hg10 mi
5:30 AM43 °FClear.3 mph93%29.71 "Hg10 mi
5:00 AM43 °FClear.3 mph93%29.68 "Hg10 mi
4:30 AM43 °FClear.1 mph93%29.68 "Hg10 mi
4:00 AM43 °FClear.1 mph93%29.68 "Hg10 mi
3:30 AM43 °FClear.1 mph93%29.68 "Hg10 mi
3:00 AM45 °FClear.1 mph93%29.68 "Hg10 mi
2:30 AM45 °FClear.1 mph93%29.71 "Hg10 mi
2:00 AM46 °FClear.No wind87%29.71 "Hg10 mi
1:30 AM48 °FClear.No wind87%29.71 "Hg10 mi
1:00 AM48 °FClear.No wind94%29.71 "Hg10 mi
12:30 AM50 °FClear.3 mph88%29.71 "Hg10 mi
12:00 AM50 °FClear.3 mph88%29.71 "Hg10 mi
11:30 PM
Wed, Jun 29
50 °FClear.1 mph88%29.71 "Hg10 mi
11:00 PM52 °FClear.No wind88%29.71 "Hg10 mi
Weather by CustomWeather, © 2016

See weather overviewHow to use our weather pages